User: anonymous   Login
Location: Table Mountain
(47.2500°N, 120.5778°W)
Time: 06:52:31
(UTC-07:00)
Language:

UKube-1 - Orbit

View from above orbital plane
View from above orbital plane
View from above satellite
View from above satellite

Ground track
Ground track

The orbit data is extracted from the following two-line orbital elements,

1 40074U 14037F   19296.04700202  .00000210  00000-0  32335-4 0  9995
2 40074  98.4492 105.2825 0004628 152.2407 207.9039 14.84116431286398
Epoch (UTC): 23 October 2019 01:07:40
Eccentricity: 0.0004628
inclination: 98.4492°
perigee height: 613 km
apogee height: 619 km
right ascension of ascending node: 105.2825°
argument of perigee: 152.2407°
revolutions per day: 14.84116431
mean anomaly at epoch: 207.9039°
orbit number at epoch: 28639

The dashed part of the orbit path shows where the satellite is in the earth's shadow,  

DLR